Location: Pine Mountain Observatory
(43.7910°N, 120.9377°W)
Time: 20:40:11
(UTC-07:00)

Vanguard 1 Rocket - All Passes

Search period start: 24 May 2019 00:00
Search period end: 03 June 2019 00:00
Orbit: 652 x 4224 km, 34.3° (Epoch: 23 May)

Date Brightness Start Highest point End Pass type
(mag) Time Alt. Az. Time Alt. Az. Time Alt. Az.
24 May - 02:28:59 10° SSW 02:33:14 27° SSE 02:39:22 10° ESE visible
24 May - 04:51:34 10° WSW 04:57:46 44° S 05:09:01 10° ESE visible
24 May - 07:15:37 10° WSW 07:24:01 35° SSW 07:38:41 10° SE daylight
24 May - 09:43:34 10° WSW 09:51:46 17° SSW 10:02:45 10° S daylight
25 May - 01:20:03 10° S 01:22:48 15° SSE 01:26:03 10° ESE visible
25 May - 03:41:30 10° WSW 03:46:40 39° S 03:55:16 10° ESE visible
25 May - 06:04:57 10° WSW 06:12:04 39° S 06:24:54 10° SE daylight
25 May - 08:30:35 10° WSW 08:39:06 23° SSW 08:51:57 10° SSE daylight
26 May - 02:31:40 10° SW 02:35:55 30° SSE 02:42:07 10° ESE visible
26 May - 04:54:36 10° WSW 05:00:33 41° S 05:11:08 10° ESE visible
26 May - 07:19:02 10° WSW 07:26:46 28° SSW 07:39:32 10° SSE daylight
26 May - 09:50:31 10° SW 09:54:25 11° SW 09:58:51 10° SSW daylight
27 May - 01:22:11 10° SSW 01:25:25 19° SSE 01:29:19 10° ESE visible
27 May - 03:44:26 10° WSW 03:49:28 38° S 03:57:42 10° ESE visible
27 May - 06:08:09 10° WSW 06:14:52 33° SSW 06:26:25 10° SE daylight
27 May - 08:35:01 10° WSW 08:41:49 17° SSW 08:51:07 10° S daylight
28 May - 00:14:41 10° SSE 00:14:56 10° SSE 00:15:11 10° SSE night (unlit)
28 May - 02:34:26 10° SW 02:38:40 31° SSE 02:44:46 10° ESE visible
28 May - 04:57:42 10° WSW 05:03:23 35° S 05:13:06 10° SE daylight
28 May - 07:22:44 10° WSW 07:29:34 22° SSW 07:39:56 10° SSE daylight
29 May - 01:24:37 10° SSW 01:28:06 22° SSE 01:32:20 10° ESE visible
29 May - 03:47:27 10° WSW 03:52:18 35° S 04:00:01 10° ESE visible
29 May - 06:11:32 10° WSW 06:17:43 26° SSW 06:27:37 10° SSE daylight
29 May - 08:41:42 10° SW 08:44:36 11° SSW 08:47:51 10° SSW daylight
30 May - 00:15:16 10° S 00:17:36 14° SSE 00:19:59 10° SE night (unlit)
30 May - 02:37:18 10° WSW 02:41:29 32° S 02:47:23 10° ESE visible
30 May - 05:00:54 10° WSW 05:06:15 30° S 05:14:54 10° SE daylight
30 May - 07:27:06 10° WSW 07:32:24 16° SSW 07:39:32 10° S daylight
31 May - 01:27:14 10° SW 01:30:52 25° SSE 01:35:15 10° ESE visible
31 May - 03:50:31 10° WSW 03:55:09 31° S 04:02:16 10° SE visible
31 May - 06:15:15 10° WSW 06:20:35 20° SSW 06:28:23 10° SSE daylight
01 Jun - 00:17:17 10° SSW 00:20:19 18° SSE 00:23:25 10° ESE night (unlit)
01 Jun - 02:40:14 10° WSW 02:44:20 30° S 02:49:56 10° ESE visible
01 Jun - 05:04:17 10° WSW 05:09:08 24° SSW 05:16:26 10° SE daylight
01 Jun - 23:07:54 10° S 23:09:40 12° SSE 23:11:20 10° SE night (unlit)
02 Jun - 01:29:57 10° SW 01:33:41 27° S 01:38:04 10° ESE visible
02 Jun - 03:53:42 10° WSW 03:58:01 26° S 04:04:19 10° SE visible
02 Jun - 06:19:40 10° SW 06:23:29 14° SSW 06:28:19 10° S daylight
